Weather History for KELN - March, 2014

Change the Weather History Date:

Sunday, March 9, 2014

  Actual Average (KYKM) Record (KYKM)
Temperature  
Mean Temperature 50 °F 42 °F  
Max Temperature 60 °F 54 °F 74 °F (2015)
Min Temperature 39 °F 29 °F 4 °F (1951)
Degree Days  
Heating Degree Days 16 23  
Month to date heating degree days 221  
Since 1 July heating degree days 4748  
Cooling Degree Days 0 0  
Month to date cooling degree days 0  
Year to date cooling degree days 0  
Moisture  
Dew Point 38 °F    
Average Humidity 71    
Maximum Humidity 89    
Minimum Humidity 44    
Precipitation  
Precipitation 0.01 in 0.02 in 0.51 in (1989)
Month to date precipitation 0.22  
Year to date precipitation 2.14  
Snow  
Snow 0.00 in 0.00 in 0.10 in (1971)
Month to date snowfall 0.4  
Year to date snowfall 8.3  
Since 1 July snowfall 21.3  
Snow Depth -    
Sea Level Pressure  
Sea Level Pressure 29.90 in    
Wind  
Wind Speed 9 mph (NW)    
Max Wind Speed 25 mph    
Max Gust Speed 34 mph    
Visibility 8 miles    
Events      
T = Trace of Precipitation, MM = Missing Value Source: NWS Daily Summary

Daily Weather History Graph

Daily Weather History Graph

Search for Another Location

Airport or City:

Trip Planner

Search our weather history database for the weather conditions in past years. The results will help you decide how hot, cold, wet, or windy it might be!

Date:

Astronomy

Mar. 09, 2014 Rise Set
Actual Time 7:26 AM PDT 6:59 PM PDT
Civil Twilight 6:56 AM PDT 7:29 PM PDT
Nautical Twilight 6:20 AM PDT 8:05 PM PDT
Astronomical Twilight 5:45 AM PDT 8:40 PM PDT
Moon 12:40 PM PDT (3/9) 3:12 AM PDT (3/9)
Length of Visible Light 12h 33m
Length of Day
11h 32m
First Quarter, 62% of the Moon is Illuminated
Mar 9
First Quarter
Mar 16
Full
Mar 23
Last Quarter
Mar 30
New
Apr 7
First Quarter

Hourly Weather History & Observations

Time (PDT) Temp. Windchill Dew Point Humidity Pressure Visibility Wind Dir Wind Speed Gust Speed Precip Events Conditions
12:53 AM 44.1 °F 41.5 °F 39.9 °F 85% 29.82 in 8.0 mi West 4.6 mph - 0.01 in   Overcast
1:53 AM 42.1 °F - 39.0 °F 89% 29.84 in 9.0 mi Calm Calm - N/A   Mostly Cloudy
3:53 AM 42.1 °F 39.2 °F 39.0 °F 89% 29.84 in 5.0 mi East 4.6 mph - N/A   Mostly Cloudy
4:53 AM 39.9 °F - 37.0 °F 89% 29.85 in 4.0 mi Calm Calm - N/A   Overcast
5:53 AM 39.9 °F 35.8 °F 37.0 °F 89% 29.88 in 3.0 mi SSW 5.8 mph - N/A   Scattered Clouds
6:42 AM 39.9 °F 37.8 °F 37.0 °F 89% 29.85 in 2.5 mi SE 3.5 mph - N/A   Mostly Cloudy
6:53 AM 39.9 °F 35.8 °F 37.0 °F 89% 29.88 in 2.0 mi ESE 5.8 mph - N/A   Mostly Cloudy
6:59 AM 39.9 °F 35.8 °F 37.0 °F 89% 29.87 in 1.8 mi SE 5.8 mph - N/A   Mostly Cloudy
7:15 AM 41.0 °F - 37.9 °F 89% 29.87 in 3.0 mi Calm Calm - N/A   Mostly Cloudy
7:53 AM 46.9 °F - 42.1 °F 83% 29.89 in 10.0 mi WNW 8.1 mph - N/A   Overcast
8:53 AM 50.0 °F - 41.0 °F 71% 29.91 in 10.0 mi NW 16.1 mph - 0.00 in   Overcast
9:53 AM 50.0 °F - 39.9 °F 68% 29.93 in 10.0 mi NW 19.6 mph - N/A   Mostly Cloudy
10:53 AM 55.0 °F - 39.9 °F 57% 29.93 in 10.0 mi NW 24.2 mph 31.1 mph N/A   Overcast
11:53 AM 53.1 °F - 39.0 °F 59% 29.96 in 10.0 mi NW 21.9 mph - N/A   Overcast
12:53 PM 57.0 °F - 37.0 °F 47% 29.95 in 10.0 mi NW 25.3 mph 32.2 mph N/A   Clear
1:53 PM 57.9 °F - 37.9 °F 47% 29.95 in 10.0 mi NW 25.3 mph 34.5 mph N/A   Partly Cloudy
2:53 PM 60.1 °F - 37.9 °F 44% 29.93 in 10.0 mi WNW 20.7 mph 28.8 mph N/A   Clear
3:53 PM 57.9 °F - 37.9 °F 47% 29.93 in 10.0 mi NW 21.9 mph 27.6 mph N/A   Clear
4:53 PM 55.9 °F - 37.9 °F 51% 29.94 in 10.0 mi NW 19.6 mph 27.6 mph N/A   Clear
5:53 PM 53.1 °F - 37.9 °F 57% 29.94 in 10.0 mi NW 15.0 mph - N/A   Partly Cloudy
6:53 PM 50.0 °F - 39.0 °F 66% 29.94 in 10.0 mi NW 15.0 mph - N/A   Clear
7:53 PM 46.9 °F - 37.9 °F 71% 29.93 in 10.0 mi NW 6.9 mph - N/A   Clear
8:53 PM 46.9 °F - 37.9 °F 71% 29.92 in 10.0 mi NW 10.4 mph - N/A   Clear
9:53 PM 48.0 °F - 37.9 °F 68% 29.92 in 10.0 mi NW 11.5 mph - N/A   Clear
10:53 PM 45.0 °F 40.6 °F 37.0 °F 74% 29.90 in 10.0 mi WNW 8.1 mph - N/A   Clear
11:53 PM 46.0 °F 40.6 °F 37.9 °F 73% 29.89 in 10.0 mi WNW 11.5 mph - N/A   Mostly Cloudy
12:53 AM 45.0 °F 41.2 °F 37.0 °F 74% 29.88 in 10.0 mi WNW 6.9 mph - N/A   Mostly Cloudy